Rbgn^[z[y[W
メイン
   新天体発見情報
     Comet C/2023 K1 (ATLAS)
投稿するにはまず登録を

スレッド表示 | 新しいものから 前のトピック | 次のトピック | 下へ
投稿者 スレッド
佐藤裕久
投稿日時: 2023-6-23 0:44
モデレータ
登録日: 2005-6-12
居住地: 日本
投稿: 2585
オンライン
Comet C/2023 K1 (ATLAS)

N. Erasmus (南アフリカ天文台)の通報によると、5月27.1日UT、南アフリカ Sutherlandにある小惑星
地球衝突最終警報システム Asteroid Terrestrial-impact Last Alert System (ATLAS)調査プログラム
のコースに0.5-m 反射望遠鏡で得た、CCD画像から彗星を発見した。
この彗星は非対称の拡散したコマが10"-15"に広がり、最も大きいところは270-285°方向であった。
小惑星センターのPCCP webpageに公表後、 L. Buzzi、A. Aletti、 F. BelliniとG. Galli (測定は A. 
Aletti, 5月29.14-29.16日, 0.36-m f/8.4 反射望遠鏡, Hakos, ナミビア: 集光した幅11"のコマと
p.a.255°を中心に、30 "の広くかすかな尾がみえる)や佐藤英貴氏(東京都文京区、5月29.82日, 30-秒
露出12枚のスタック, 0.51-m f/6.8 アストログラフ, Siding Spring, NSW, オーストラリア,遠隔操作: 
強く集光した12"のコマと、p.a. 200-265°にわたって、20"の扇形の尾が見える。6".5の円形範囲で
測定した光度は17.6等であった)らCCD位置観測者によって彗星状と観測された。

彗星機能の報告は次のとおり、

OC   Date        Reporter           Coma    Tail    PA          Exposures
M28  2023-05-28  N. Erasmus        10"                            5x30s
W57  2023-05-29  F. Ocana          14"       13"    265-295      15x116s
Q62  2023-05-29  H. Sato           12"       20"    200-265      12x30s
Q62  2023-05-29  N. Paul            9"                           15x60s
M21  2023-05-29  A. Aletti         11"       30"    220-290      18x60s
W85  2023-05-30  M. Micheli         8"       15"    265
W87  2023-05-30  M. Micheli         8"       20"    270
Q63  2023-05-30  M. Micheli        10"       15"    260
X07  2023-06-01  T. Prystavski     18"       30"    240-283 

発見位置は次のとおり、

     2023 UT             R.A. (2000) Decl.       Mag.
     May  27.09383   22 58 48.05   -61 49 58.9   18.6
          27.09532   22 58 47.83   -61 50 02.1   17.6
          27.10174   22 58 47.31   -61 50 17.3   17.7
          27.11319   22 58 46.22   -61 50 43.2   17.7

MPCの楕円軌道要素、位置推算表は次のとおり、

Orbital elements:
    C/2023 K1 (ATLAS)                                                           
Epoch 2023 Feb. 25.0 TT = JDT 2460000.5                                         
T 2023 Sept. 10.00718 TT                                Rudenko                 
q   2.0273550            (2000.0)            P               Q                  
z  +0.0253781      Peri.  338.65809     -0.48090755     -0.74249724             
 +/-0.0019679      Node   224.09818     -0.67568108     -0.02505995             
e   0.9485496      Incl.  137.92816     -0.55873339     +0.66938020             
From 58 observations 2023 May 27-June 2, mean residual 0".5.                    
                                                                                
Ephemeris:
Date    TT    R. A. (2000) Decl.     Delta      r    Elong.  Phase   m1
2023 05 06    23 08 41.1 -51 54 41   2.4084  2.5005    83.3    23.6  18.9
...
2023 05 21    23 05 02.2 -58 19 49   2.0555  2.4063    97.5    24.6  18.4
...
2023 05 29    22 55 49.4 -63 02 42   1.8806  2.3590   105.2    24.5  18.1
...
2023 06 04    22 41 26.6 -67 13 14   1.7613  2.3251   110.9    24.1  17.9
2023 06 05    22 38 01.3 -67 57 54   1.7427  2.3195   111.8    24.0  17.9
2023 06 06    22 34 12.3 -68 43 16   1.7245  2.3140   112.7    23.9  17.8
...
2023 06 12    21 59 20.1 -73 24 17   1.6253  2.2819   117.7    23.2  17.6
...
2023 06 20    20 07 35.4 -78 46 08   1.5245  2.2414   122.6    22.5  17.4
...
2023 07 05    15 09 23.6 -72 14 51   1.4590  2.1735   121.8    23.4  17.2

(MPEC 2023-L19、CBET 5268)

スレッド表示 | 新しいものから 前のトピック | 次のトピック | トップ

投稿するにはまず登録を
 
© 1999 Tsutomu Seki.